[[{"header":{"parameterUnit":"m.s-1","parameterCategory":1,"la1":30.2991,"la2":30.254,"lo1":-89.0895,"lo2":-89.0444,"dy":0.0017,"dx":0.0017,"nx":28,"ny":28,"refTime":"2023-10-06T03:00:00:Z","depth":0,"parameterNumber":2,"parameterNumberName":"U-component_of_WINDS"},"data":[0,0,0,0,0,0,0,0,0,0,0,0,0,0,0,0,0,0,0,0,0,0,0,0,0,0,0,0,0,0,0,0,0,0,0,0,0,0,0,0,0,0,0,0,0,0,0,0,0,0,0,0,0,0,0,0,0,0,-0.5646,-0.5648,0,-0.58,-0.5802,-0.5804,-0.5868,-0.5868,-0.5867,-0.5867,-0.6031,-0.6036,-0.604,0,0,0,0,0,0,0,0,0,0,0,0,0,-0.5413,-0.5417,-0.5646,-0.5648,-0.565,-0.58,-0.5802,-0.5804,-0.5868,-0.5868,-0.5867,-0.5867,-0.603,-0.6035,-0.6041,0,0,0,0,0,0,0,0,0,0,0,0,0,-0.5536,-0.5419,-0.5646,-0.57,-0.5706,-0.58,-0.5802,-0.5805,-0.5868,-0.5868,-0.5867,-0.5867,-0.6028,-0.6035,-0.6042,-0.6095,0,0,-0.6063,-0.6066,0,0,0,0,0,0,0,0,-0.5529,-0.5544,-0.569,-0.5696,-0.5704,-0.5814,-0.578,-0.5902,-0.5868,-0.5807,-0.5867,-0.5867,-0.596,-0.5972,-0.6003,-0.6102,-0.6109,-0.6064,-0.6068,-0.6071,-0.6073,0,0,0,0,0,0,0,-0.552,-0.5538,-0.5707,-0.5692,-0.57,-0.5718,-0.5735,-0.5804,-0.5885,-0.5812,-0.5817,-0.5834,-0.5964,-0.5996,-0.6007,-0.6112,-0.6063,-0.607,-0.6074,-0.6077,-0.6263,-0.6264,0,0,0,0,0,0,-0.5502,-0.5531,-0.5702,-0.5712,-0.5613,-0.5723,-0.5742,-0.5779,-0.5884,-0.5899,-0.5835,-0.5837,-0.5984,-0.5999,-0.6013,-0.6082,-0.6071,-0.6077,-0.6081,-0.6262,-0.6263,-0.6264,0,0,0,0,0,0,-0.5497,-0.5517,-0.5696,-0.5623,-0.5647,-0.5727,-0.5769,-0.5783,-0.5815,-0.5901,-0.5916,-0.5852,-0.5984,-0.6003,-0.6073,-0.6088,-0.6081,-0.6087,-0.6262,-0.6263,-0.6264,-0.622,0,0,0,0,0,0,-0.549,-0.5514,-0.5534,-0.5622,-0.565,-0.5752,-0.577,-0.5786,-0.5826,-0.583,-0.5921,-0.5936,-0.5985,-0.6063,-0.608,-0.6098,-0.6092,-0.6261,-0.6262,-0.6263,-0.622,-0.6219,-0.6218,0,0,0,0,0,-0.5481,-0.5517,-0.5534,-0.5555,-0.5676,-0.5753,-0.5769,-0.5823,-0.5827,-0.5848,-0.5903,-0.5933,-0.6084,-0.6069,-0.609,-0.611,-0.626,-0.6262,-0.6263,-0.6221,-0.6219,-0.6218,0,0,0,0,0,0,-0.543,-0.5529,-0.555,-0.5615,-0.5675,-0.5763,-0.5792,-0.582,-0.5882,-0.5884,-0.595,-0.597,-0.6035,-0.608,-0.6062,-0.6167,-0.6174,-0.618,-0.6135,-0.6135,-0.6134,-0.6122,-0.6098,0,0,0,0,0,-0.5426,-0.5478,-0.5563,-0.5612,-0.564,-0.571,-0.5746,-0.5782,-0.5848,-0.5874,-0.5935,-0.5999,-0.6061,-0.61,-0.6162,-0.6227,-0.6248,-0.6251,-0.625,-0.6249,-0.6253,-0.6292,-0.6294,-0.627,-0.627,-0.627,0,0,-0.5419,-0.5479,-0.5508,-0.5603,-0.5653,-0.5707,-0.5732,-0.5788,-0.5829,-0.5884,-0.5953,-0.5999,-0.6076,-0.6143,-0.6176,-0.6183,-0.6265,-0.6251,-0.6249,-0.6255,-0.6294,-0.6296,-0.6298,-0.6271,-0.6271,-0.6271,0,0,-0.5433,-0.5483,-0.553,-0.5579,-0.5655,-0.5701,-0.5712,-0.5797,-0.5829,-0.5899,-0.5941,-0.5993,-0.6098,-0.615,-0.6191,-0.6224,-0.6254,-0.6243,-0.6238,-0.6274,-0.6276,-0.6278,-0.6291,-0.6294,-0.6247,-0.6247,-0.6247,0,-0.5415,-0.5495,-0.555,-0.5604,-0.5645,-0.5694,-0.5743,-0.5789,-0.5882,-0.591,-0.5915,-0.6047,-0.6102,-0.6183,-0.6191,-0.6222,-0.6238,-0.6233,-0.6271,-0.6274,-0.6277,-0.6289,-0.6293,-0.6245,-0.6245,-0.6245,-0.6245,0,-0.547,-0.5525,-0.5554,-0.5639,-0.5684,-0.5734,-0.5799,-0.5837,-0.587,-0.5916,-0.5988,-0.6055,-0.6131,-0.6154,-0.6187,-0.624,-0.6241,-0.6258,-0.6267,-0.6276,-0.6289,-0.6294,-0.6242,-0.6243,-0.6243,-0.6244,0,0,-0.5456,-0.557,-0.558,-0.5619,-0.5706,-0.5751,-0.5805,-0.5877,-0.5909,-0.5972,-0.6019,-0.6106,-0.6122,-0.6168,-0.6208,-0.624,-0.6263,-0.6254,-0.6256,-0.6253,-0.6325,-0.6312,-0.6316,-0.6283,-0.6284,-0.6285,-0.6319,0,-0.5481,-0.5577,-0.5628,-0.5703,-0.5755,-0.5803,-0.585,-0.5909,-0.5954,-0.6007,-0.6058,-0.6119,-0.6135,-0.6163,-0.6197,-0.6252,-0.6278,-0.6251,-0.6329,-0.6332,-0.6308,-0.6323,-0.6309,-0.6338,-0.6324,-0.6325,-0.6326,0,-0.5524,-0.5583,-0.5662,-0.5742,-0.5767,-0.5807,-0.5878,-0.5927,-0.5996,-0.6027,-0.6077,-0.6117,-0.6177,-0.6181,-0.6266,-0.6246,-0.6282,-0.6314,-0.6317,-0.6326,-0.6329,-0.6333,-0.6348,-0.6352,-0.6334,-0.6334,-0.6333,0,-0.5506,-0.5606,-0.5666,-0.5698,-0.5793,-0.5821,-0.5862,-0.5931,-0.5971,-0.6033,-0.606,-0.613,-0.6168,-0.6222,-0.628,-0.6277,-0.6359,-0.6368,-0.6387,-0.6386,-0.6403,-0.6401,-0.6423,-0.6425,-0.6425,-0.6425,-0.6425,0,-0.5529,-0.5576,-0.5659,-0.5695,-0.575,-0.5809,-0.5861,-0.5907,-0.5967,-0.6015,-0.6062,-0.6107,-0.618,-0.6235,-0.6281,-0.6344,-0.6362,-0.6389,-0.6401,-0.6385,-0.6381,-0.6409,-0.6409,-0.6426,-0.6426,-0.6426,-0.6425,0,-0.5518,-0.5575,-0.5644,-0.5728,-0.575,-0.5786,-0.5859,-0.5898,-0.5945,-0.6005,-0.6023,-0.6098,-0.6164,-0.6227,-0.6317,-0.6348,-0.6412,-0.6427,-0.6387,-0.6394,-0.6409,-0.6407,-0.6451,-0.646,-0.6455,-0.6455,-0.6455,0,-0.5529,-0.5565,-0.5653,-0.5687,-0.5727,-0.5782,-0.5822,-0.5883,-0.5924,-0.6005,-0.6034,-0.6103,-0.6162,-0.6266,-0.633,-0.6399,-0.6416,-0.6427,-0.6427,-0.641,-0.6417,-0.6414,-0.6418,-0.6426,-0.6426,-0.6425,-0.6425,0,-0.5542,-0.5568,-0.5624,-0.5689,-0.5736,-0.5791,-0.5848,-0.5874,-0.5946,-0.599,-0.6057,-0.6102,-0.6192,-0.6261,-0.6337,-0.6383,-0.6416,-0.6424,-0.6433,-0.6417,-0.6392,-0.6406,-0.6384,-0.6423,-0.6423,-0.6424,-0.6424,-0.6424,-0.5543,-0.5577,-0.5644,-0.5704,-0.5753,-0.5805,-0.5845,-0.5896,-0.5952,-0.6029,-0.6062,-0.613,-0.6199,-0.6304,-0.6349,-0.6405,-0.6413,-0.6424,-0.6428,-0.643,-0.6426,-0.6383,-0.6419,-0.6419,-0.642,-0.642,-0.642,0,-0.5559,-0.5603,-0.5658,-0.5735,-0.5783,-0.5808,-0.5872,-0.5911,-0.597,-0.603,-0.6086,-0.6164,-0.6231,-0.6299,-0.637,-0.6402,-0.6419,-0.6419,-0.6417,-0.6427,-0.6415,-0.6401,-0.6403,-0.6403,-0.6403,-0.6403,-0.6403,-0.6403,-0.5572,-0.5632,-0.5666,-0.5751,-0.5796,-0.5861,-0.5896,-0.5945,-0.5993,-0.6076,-0.6131,-0.6175,-0.6239,-0.6315,-0.6379,-0.6397,-0.6422,-0.6417,-0.644,-0.6427,-0.6428,-0.6429,-0.6416,-0.6421,-0.6421,-0.6447,-0.6447,-0.6448]},{"header":{"parameterUnit":"m.s-1","parameterCategory":1,"la1":30.2991,"la2":30.254,"lo1":-89.0895,"lo2":-89.0444,"dy":0.0017,"dx":0.0017,"nx":28,"ny":28,"refTime":"2023-10-06T03:00:00:Z","depth":0,"parameterNumber":3,"parameterNumberName":"V-component_of_WINDS"},"data":[0,0,0,0,0,0,0,0,0,0,0,0,0,0,0,0,0,0,0,0,0,0,0,0,0,0,0,0,0,0,0,0,0,0,0,0,0,0,0,0,0,0,0,0,0,0,0,0,0,0,0,0,0,0,0,0,0,0,-2.6965,-2.6965,0,-2.6968,-2.6968,-2.6968,-2.6916,-2.6915,-2.6913,-2.6912,-2.6915,-2.6916,-2.6918,0,0,0,0,0,0,0,0,0,0,0,0,0,-2.6914,-2.6915,-2.6965,-2.6965,-2.6965,-2.6968,-2.6968,-2.6968,-2.6916,-2.6915,-2.6913,-2.6911,-2.6914,-2.6916,-2.6918,0,0,0,0,0,0,0,0,0,0,0,0,0,-2.6928,-2.6915,-2.6965,-2.6939,-2.6937,-2.6968,-2.6968,-2.6968,-2.6917,-2.6915,-2.6912,-2.6911,-2.6914,-2.6916,-2.6918,-2.6973,0,0,-2.6924,-2.6925,0,0,0,0,0,0,0,0,-2.6928,-2.693,-2.6943,-2.6941,-2.6939,-2.6939,-2.6951,-2.6969,-2.6917,-2.6925,-2.6912,-2.6909,-2.6925,-2.6926,-2.6931,-2.6973,-2.6973,-2.6924,-2.6926,-2.6927,-2.6927,0,0,0,0,0,0,0,-2.6927,-2.693,-2.6966,-2.6943,-2.6941,-2.6928,-2.6928,-2.6954,-2.6936,-2.6924,-2.692,-2.6921,-2.6923,-2.6929,-2.6931,-2.6973,-2.6924,-2.6926,-2.6928,-2.6928,-2.7058,-2.706,0,0,0,0,0,0,-2.6929,-2.6929,-2.6966,-2.6966,-2.6928,-2.693,-2.693,-2.6941,-2.6936,-2.6933,-2.6923,-2.6919,-2.6927,-2.6928,-2.6931,-2.6993,-2.6927,-2.6929,-2.693,-2.7056,-2.7059,-2.7061,0,0,0,0,0,0,-2.6928,-2.6933,-2.6966,-2.6947,-2.695,-2.6933,-2.6946,-2.6942,-2.6948,-2.6935,-2.6932,-2.6932,-2.6925,-2.6928,-2.6962,-2.6992,-2.6929,-2.6931,-2.7053,-2.7057,-2.706,-2.7119,0,0,0,0,0,0,-2.6927,-2.6933,-2.6954,-2.6948,-2.6951,-2.6998,-2.6948,-2.6944,-2.6952,-2.6947,-2.6943,-2.694,-2.6924,-2.6959,-2.6964,-2.6994,-2.6933,-2.7051,-2.7055,-2.7059,-2.7114,-2.7124,-2.7132,0,0,0,0,0,-2.6925,-2.6971,-2.6955,-2.696,-2.6977,-2.6999,-2.7001,-2.6981,-2.6955,-2.6975,-2.6967,-2.6941,-2.6989,-2.6963,-2.6968,-2.6999,-2.7049,-2.7054,-2.7059,-2.711,-2.7122,-2.7132,0,0,0,0,0,0,-2.6981,-2.6969,-2.6952,-2.6996,-2.6999,-2.6991,-2.7016,-2.6994,-2.7005,-2.6999,-2.6974,-2.6973,-2.7012,-2.7009,-2.6981,-2.7051,-2.7014,-2.702,-2.7051,-2.7062,-2.7071,-2.707,-2.6935,0,0,0,0,0,-2.6998,-2.7018,-2.7007,-2.7047,-2.7049,-2.7033,-2.7042,-2.7026,-2.7028,-2.7029,-2.7023,-2.7026,-2.7041,-2.7052,-2.7065,-2.7114,-2.7112,-2.7137,-2.7146,-2.7154,-2.7159,-2.7183,-2.7194,-2.7077,-2.7077,-2.7077,0,0,-2.7034,-2.703,-2.7044,-2.7058,-2.7058,-2.7079,-2.7034,-2.7058,-2.7072,-2.7032,-2.7064,-2.706,-2.7061,-2.7103,-2.7121,-2.7102,-2.7191,-2.716,-2.7166,-2.7167,-2.7189,-2.72,-2.721,-2.7081,-2.708,-2.708,0,0,-2.711,-2.711,-2.7143,-2.7144,-2.7145,-2.7133,-2.7141,-2.7136,-2.7131,-2.7163,-2.7133,-2.715,-2.7178,-2.7179,-2.7184,-2.726,-2.7236,-2.7265,-2.7311,-2.7335,-2.7344,-2.7352,-2.7378,-2.7388,-2.7271,-2.7271,-2.7271,0,-2.7155,-2.7184,-2.7162,-2.7187,-2.7194,-2.7158,-2.7191,-2.7193,-2.7199,-2.7204,-2.7183,-2.7216,-2.7214,-2.7255,-2.7273,-2.7279,-2.7286,-2.7265,-2.7345,-2.7353,-2.736,-2.7384,-2.7394,-2.7274,-2.7274,-2.7274,-2.7273,0,-2.7238,-2.7259,-2.7286,-2.7291,-2.7301,-2.733,-2.7311,-2.7324,-2.7307,-2.7298,-2.733,-2.7327,-2.7339,-2.7347,-2.7332,-2.7386,-2.7374,-2.7349,-2.7311,-2.7375,-2.7397,-2.7406,-2.7279,-2.7278,-2.7277,-2.7276,0,0,-2.7349,-2.7341,-2.7351,-2.7353,-2.7351,-2.7366,-2.7394,-2.7405,-2.7415,-2.7421,-2.7442,-2.7466,-2.7443,-2.7448,-2.7432,-2.7453,-2.7512,-2.7426,-2.7425,-2.7441,-2.7569,-2.7587,-2.7598,-2.7497,-2.7498,-2.75,-2.7569,0,-2.7421,-2.7466,-2.7447,-2.7494,-2.7512,-2.7479,-2.7502,-2.7504,-2.7496,-2.751,-2.7501,-2.7518,-2.7487,-2.749,-2.7509,-2.7501,-2.7537,-2.7496,-2.7515,-2.7516,-2.7514,-2.761,-2.7628,-2.7694,-2.7578,-2.7579,-2.758,0,-2.7512,-2.7519,-2.7568,-2.7562,-2.7569,-2.759,-2.7598,-2.7613,-2.7613,-2.7606,-2.7612,-2.7591,-2.7616,-2.758,-2.7614,-2.7586,-2.7593,-2.759,-2.7592,-2.7592,-2.7551,-2.7611,-2.7714,-2.7723,-2.7594,-2.7593,-2.7592,0,-2.7585,-2.7608,-2.764,-2.7642,-2.7637,-2.7652,-2.765,-2.7649,-2.7656,-2.7664,-2.7668,-2.7679,-2.7685,-2.7693,-2.7675,-2.7651,-2.7712,-2.7674,-2.7706,-2.7706,-2.7719,-2.7718,-2.7823,-2.7726,-2.7726,-2.7726,-2.7726,0,-2.7667,-2.7698,-2.7673,-2.7692,-2.7725,-2.7703,-2.7736,-2.7731,-2.773,-2.7747,-2.772,-2.7736,-2.7713,-2.7728,-2.7714,-2.7744,-2.7747,-2.7741,-2.7737,-2.7743,-2.7743,-2.7746,-2.774,-2.7729,-2.7728,-2.7728,-2.7727,0,-2.7754,-2.7739,-2.7771,-2.7762,-2.7761,-2.7786,-2.7778,-2.7795,-2.7786,-2.7808,-2.7812,-2.7796,-2.7812,-2.7796,-2.7811,-2.7802,-2.7841,-2.7831,-2.7841,-2.7837,-2.7869,-2.7866,-2.7979,-2.7992,-2.7888,-2.7889,-2.789,0,-2.7807,-2.7829,-2.7823,-2.7832,-2.7832,-2.7848,-2.7855,-2.7834,-2.7843,-2.7845,-2.7862,-2.7875,-2.7884,-2.7911,-2.7901,-2.7912,-2.7901,-2.794,-2.7902,-2.7907,-2.79,-2.7898,-2.7899,-2.7947,-2.7948,-2.7949,-2.795,0,-2.7901,-2.7892,-2.7903,-2.7912,-2.7922,-2.7928,-2.7932,-2.7941,-2.7919,-2.7931,-2.7946,-2.7953,-2.7968,-2.7981,-2.7989,-2.7987,-2.7965,-2.7962,-2.797,-2.7975,-2.7979,-2.7976,-2.786,-2.7959,-2.7958,-2.7958,-2.7957,-2.7957,-2.7971,-2.7989,-2.7987,-2.8001,-2.8001,-2.8005,-2.8021,-2.8013,-2.8025,-2.8035,-2.8022,-2.804,-2.804,-2.8048,-2.8049,-2.8063,-2.8046,-2.8058,-2.806,-2.8063,-2.8067,-2.7978,-2.8064,-2.8064,-2.8064,-2.8064,-2.8063,0,-2.8062,-2.8059,-2.8072,-2.8078,-2.8088,-2.8067,-2.807,-2.808,-2.8097,-2.8098,-2.8107,-2.8125,-2.8137,-2.8128,-2.8139,-2.8152,-2.8142,-2.8155,-2.8153,-2.8152,-2.8082,-2.8073,-2.8163,-2.8163,-2.8163,-2.8163,-2.8163,-2.8163,-2.8111,-2.814,-2.813,-2.8159,-2.8156,-2.8173,-2.8177,-2.818,-2.8181,-2.8201,-2.8211,-2.8205,-2.8202,-2.8212,-2.8222,-2.8219,-2.8223,-2.824,-2.8234,-2.8167,-2.8158,-2.8148,-2.814,-2.8242,-2.8242,-2.8302,-2.8303,-2.8304]}]]